visible

Flag for Algeria Weather past 2 weeks in Constantine, Algeria

Now
77 °F

Passing clouds.


Feels Like: 78 °F
Forecast: 60 / 88 °F
Wind: No wind

Location: Constantine Airport

Current Time: Sep 23, 2014 at 11:33:26 AM

Latest Report: Sep 23, 2014 at 10:30 AM


Visibility: N/A

Pressure: 30.07 "Hg

Humidity: 44%

Dew point: 54 °F

Location of ConstantineLocation

Historic Weather in Constantine — Graph

°F

Constantine temperature yesterday

Maximum temperature yesterday: 93 °F (at 12:30 PM)
Minimum temperature yesterday: 66 °F (at 6:30 AM)
Average temperature yesterday: 79 °F

Past Weeks' High & Low Weather Summary

 TemperatureHumidityPressure
High106 °F (Sep 19, 3:00 PM)94% (Sep 11, 6:30 AM)30.24 "Hg (Sep 11, 6:30 AM)
Low59 °F (Sep 13, 5:30 AM)9% (Sep 19, 3:00 PM)29.89 "Hg (Sep 17, 2:30 PM)
Average79 °F44%30.06 "Hg
* Reported Sep 8 10:00 AM — Sep 23 10:30 AM, Constantine, Weather by CustomWeather, © 2014

Note: Actual official high and low records may vary slightly from our data, if they occured in-between our weather recording intervals... More about our weather records

Advertising

Constantine weather history for previous 24 hours

 ConditionsComfort  
Time TempWeatherWind HumidityBarometerVisibility
10:30 AM
Sep 23
77 °FPassing clouds.No wind44%30.07 "HgN/A
10:00 AM75 °FPassing clouds.No wind47%30.07 "HgN/A
9:30 AM75 °FPassing clouds.No wind50%30.07 "HgN/A
9:00 AM72 °FPassing clouds.5 mph57%30.07 "HgN/A
8:30 AM72 °FPassing clouds.9 mph57%30.04 "HgN/A
8:00 AM72 °FPassing clouds.9 mph57%30.04 "HgN/A
7:30 AM70 °FPassing clouds.9 mph64%30.04 "HgN/A
7:00 AM66 °FPassing clouds.No wind73%30.04 "HgN/A
6:30 AM66 °FPassing clouds.7 mph73%30.01 "HgN/A
6:00 AM66 °FClear.7 mph73%30.01 "Hg10 mi
5:30 AM68 °FClear.10 mph69%30.01 "Hg10 mi
5:00 AM68 °FPartly cloudy.10 mph69%29.98 "HgN/A
4:30 AM70 °FPartly cloudy.8 mph57%29.98 "HgN/A
4:00 AM70 °FPartly cloudy.8 mph57%29.98 "HgN/A
3:00 AM77 °FPartly cloudy.7 mph36%29.98 "HgN/A
2:30 AM77 °FPartly cloudy.7 mph36%29.98 "HgN/A
2:00 AM77 °FPartly cloudy.7 mph36%29.98 "HgN/A
1:00 AM77 °FPartly cloudy.7 mph36%29.98 "HgN/A
12:00 AM79 °FPartly cloudy.9 mph34%29.98 "HgN/A
11:00 PM
Sep 22
79 °FPartly cloudy.9 mph34%30.01 "HgN/A
10:00 PM79 °FPassing clouds.9 mph34%30.01 "HgN/A
9:30 PM79 °FPassing clouds.5 mph34%30.01 "HgN/A
9:00 PM79 °FPassing clouds.5 mph34%30.01 "HgN/A
8:30 PM79 °FPassing clouds.7 mph34%30.01 "Hg5 mi
8:00 PM81 °FPassing clouds.7 mph32%30.01 "Hg5 mi
7:30 PM82 °FPassing clouds.12 mph37%30.01 "Hg6 mi
7:00 PM81 °FPassing clouds.No wind39%30.01 "HgN/A
6:30 PM82 °FPartly sunny.2 mph37%30.01 "Hg5 mi
6:00 PM82 °FBroken clouds.7 mph37%30.01 "Hg4 mi
5:30 PM84 °FBroken clouds.12 mph37%30.01 "Hg4 mi
5:00 PM86 °FBroken clouds.20 mph33%29.98 "Hg4 mi
4:30 PM88 °FBroken clouds.10 mph33%29.98 "Hg5 mi
4:00 PM90 °FBroken clouds.8 mph29%29.98 "Hg5 mi
3:30 PM91 °FBroken clouds.12 mph28%29.98 "Hg5 mi
3:00 PM90 °FBroken clouds.14 mph29%29.98 "Hg5 mi
2:30 PM93 °FPartly sunny.17 mph28%29.98 "Hg4 mi
1:30 PM90 °FPartly sunny.15 mph31%29.98 "Hg4 mi
1:00 PM91 °FClear.8 mph30%29.98 "Hg4 mi
12:30 PM93 °FClear.9 mph26%30.01 "Hg5 mi
12:00 PM91 °FClear.6 mph26%30.01 "Hg5 mi
11:30 AM90 °FClear.No wind31%30.04 "Hg5 mi
11:00 AM86 °FClear.No wind33%30.04 "Hg5 mi
Weather by CustomWeather, © 2014

See weather overviewHow to use our weather pages